Simultaneous Nadir Overpasses (SNOs) Predictions

Prediction of SNOs between FY3D and AQUA Satellite Orbit:

Table of predicted SNOs for the next 14.0 days since TLE Epoch: 11/2/2024
Index Date (FY3D) Time (FY3D) Lat,Lon (FY3D) SZA (FY3D ) Date (AQUA) Time (AQUA) Lat,Lon (AQUA) SZA (AQUA ) Distance(km) Time Diff (sec)
1 11/02/2024 21:48:31 79.51,-163.88 94.82 11/02/2024 21:48:31 79.51,-163.82 94.81 1.24 0
2 11/05/2024 08:10:23 -79.59,-139.98 84.34 11/05/2024 08:11:25 -79.59,-140.10 84.35 2.44 62
3 11/05/2024 09:01:02 79.40, 29.02 95.42 11/05/2024 09:00:40 79.40, 28.95 95.43 1.66 22
4 11/07/2024 19:22:57 -79.59, 51.94 83.62 11/07/2024 19:23:33 -79.59, 51.97 83.63 0.65 36
5 11/07/2024 20:13:35 79.36,-138.79 96.11 11/07/2024 20:12:47 79.36,-138.76 96.11 0.50 48
6 11/10/2024 06:35:29 -79.54,-115.74 82.97 11/10/2024 06:35:36 -79.54,-115.63 82.99 2.29 7
7 11/10/2024 07:23:39 72.90, 79.56 90.62 11/10/2024 07:22:27 72.54, 77.22 90.10 86.96 72
8 11/12/2024 16:57:20 79.64, -92.02 97.82 11/12/2024 16:58:19 79.64, -91.99 97.81 0.54 59
9 11/12/2024 17:47:59 -79.45, 76.97 82.42 11/12/2024 17:47:34 -79.44, 77.08 82.43 2.51 25
10 11/15/2024 04:09:49 79.54, 100.85 98.32 11/15/2024 04:10:13 79.54, 100.80 98.32 1.02 24



Historial Predications of SNOs between FY3D and AQUA
